Location: Les Jeannots
(43.2262°N, 5.5774°E)
Time: 18:13:05
(UTC+00:00)

USA 267 - Pass Details

Date: 05 July 2020
Orbit: 1102 x 1106 km, 123.0° (Epoch: 09 August)

Event Time Altitude Azimuth Distance (km) Brightness Sun altitude
Exits shadow 23:21:16 45° 197° (SSW) 1,464 3.5 -23.9°
Maximum altitude 23:22:27 50° 228° (SW) 1,379 3.5 -23.9°
Drops below altitude 10° 23:28:46 10° 303° (WNW) 2,963 6.0 -24.0°
Sets 23:31:22 0° 308° (NW) 3,924 6.7 -24.1°
